TimeEDT,TemperatureF,Dew PointF,Humidity,Sea Level PressureIn,VisibilityMPH,Wind Direction,Wind SpeedMPH,Gust SpeedMPH,PrecipitationIn,Events,Conditions,WindDirDegrees,DateUTC
12:53 AM,62.1,61.0,96,30.21,10.0,WSW,3.5,-,N/A,,Clear,240,2013-08-17 04:53:00
1:53 AM,59.0,57.0,93,30.21,10.0,WSW,4.6,-,N/A,,Clear,250,2013-08-17 05:53:00
2:32 AM,57.2,55.4,94,30.21,2.5,Calm,Calm,-,N/A,,Partly Cloudy,0,2013-08-17 06:32:00
2:43 AM,55.4,53.6,94,30.21,3.0,Calm,Calm,-,N/A,,Scattered Clouds,0,2013-08-17 06:43:00
2:48 AM,55.4,51.8,88,30.22,2.5,Calm,Calm,-,N/A,,Scattered Clouds,0,2013-08-17 06:48:00
2:51 AM,53.6,51.8,94,30.21,1.0,Calm,Calm,-,N/A,,Mist,0,2013-08-17 06:51:00
2:53 AM,54.0,52.0,93,30.22,0.8,Calm,Calm,-,N/A,,Mist,0,2013-08-17 06:53:00
3:15 AM,53.6,51.8,94,30.21,0.5,West,3.5,-,N/A,Fog,Fog,270,2013-08-17 07:15:00
3:25 AM,53.6,51.8,94,30.21,2.5,West,3.5,-,N/A,,Clear,270,2013-08-17 07:25:00
3:34 AM,51.8,51.8,100,30.21,1.0,Calm,Calm,-,N/A,,Clear,0,2013-08-17 07:34:00
3:49 AM,51.8,51.8,100,30.21,2.0,Calm,Calm,-,N/A,,Partly Cloudy,0,2013-08-17 07:49:00
3:53 AM,52.0,51.1,97,30.22,5.0,Calm,Calm,-,N/A,,Partly Cloudy,0,2013-08-17 07:53:00
3:59 AM,51.8,50.0,94,30.21,1.5,Calm,Calm,-,N/A,,Partly Cloudy,0,2013-08-17 07:59:00
4:02 AM,51.8,50.0,94,30.21,0.8,Calm,Calm,-,N/A,,Mist,0,2013-08-17 08:02:00
4:09 AM,51.8,50.0,94,30.21,0.2,Calm,Calm,-,N/A,Fog,Fog,0,2013-08-17 08:09:00
4:20 AM,51.8,50.0,94,30.21,0.5,Calm,Calm,-,N/A,Fog,Fog,0,2013-08-17 08:20:00
4:26 AM,51.8,50.0,94,30.22,1.2,West,3.5,-,N/A,,Partly Cloudy,260,2013-08-17 08:26:00
4:29 AM,51.8,50.0,94,30.22,3.0,West,3.5,-,N/A,,Partly Cloudy,260,2013-08-17 08:29:00
4:48 AM,50.0,48.2,94,30.21,2.0,Calm,Calm,-,N/A,,Partly Cloudy,0,2013-08-17 08:48:00
4:53 AM,51.1,48.9,92,30.22,4.0,Calm,Calm,-,N/A,,Scattered Clouds,0,2013-08-17 08:53:00
4:57 AM,51.8,50.0,94,30.21,1.8,Calm,Calm,-,N/A,,Scattered Clouds,0,2013-08-17 08:57:00
5:06 AM,51.8,50.0,94,30.22,3.0,WSW,3.5,-,N/A,,Partly Cloudy,250,2013-08-17 09:06:00
5:13 AM,51.8,50.0,94,30.22,10.0,Calm,Calm,-,N/A,,Partly Cloudy,0,2013-08-17 09:13:00
5:25 AM,51.8,50.0,94,30.22,10.0,Calm,Calm,-,N/A,,Clear,0,2013-08-17 09:25:00
5:38 AM,50.0,48.2,94,30.22,1.8,WSW,3.5,-,N/A,,Clear,250,2013-08-17 09:38:00
5:45 AM,51.8,48.2,88,30.22,0.5,Calm,Calm,-,N/A,Fog,Fog,0,2013-08-17 09:45:00
5:53 AM,50.0,48.0,93,30.23,0.2,West,3.5,-,N/A,Fog,Fog,270,2013-08-17 09:53:00
6:45 AM,55.4,53.6,94,30.23,0.2,Calm,Calm,-,N/A,Fog,Fog,0,2013-08-17 10:45:00
6:53 AM,57.0,55.0,93,30.23,0.2,Calm,Calm,-,N/A,Fog,Fog,0,2013-08-17 10:53:00
7:01 AM,59.0,57.2,94,30.23,10.0,Calm,Calm,-,N/A,,Clear,0,2013-08-17 11:01:00
7:53 AM,68.0,63.0,84,30.24,10.0,NW,3.5,-,N/A,,Clear,320,2013-08-17 11:53:00
8:53 AM,72.0,57.9,61,30.25,10.0,North,5.8,-,N/A,,Clear,10,2013-08-17 12:53:00
9:53 AM,75.0,57.9,55,30.25,10.0,North,5.8,-,N/A,,Clear,350,2013-08-17 13:53:00
10:53 AM,78.1,57.0,48,30.26,10.0,Calm,Calm,-,N/A,,Clear,0,2013-08-17 14:53:00
11:53 AM,78.1,59.0,52,30.26,10.0,East,3.5,-,N/A,,Clear,90,2013-08-17 15:53:00
12:53 PM,77.0,63.0,62,30.25,10.0,South,4.6,-,N/A,,Partly Cloudy,170,2013-08-17 16:53:00
1:53 PM,77.0,61.0,58,30.25,10.0,Variable,3.5,-,N/A,,Clear,0,2013-08-17 17:53:00
2:53 PM,77.0,61.0,58,30.25,10.0,Variable,6.9,-,N/A,,Scattered Clouds,0,2013-08-17 18:53:00
3:53 PM,78.1,62.1,58,30.24,10.0,SSW,5.8,-,N/A,,Mostly Cloudy,210,2013-08-17 19:53:00
4:53 PM,75.0,61.0,62,30.25,10.0,SSW,5.8,-,N/A,,Clear,200,2013-08-17 20:53:00
5:53 PM,73.0,61.0,66,30.25,10.0,SSW,4.6,-,N/A,,Clear,210,2013-08-17 21:53:00
6:53 PM,71.1,62.1,73,30.26,10.0,Calm,Calm,-,N/A,,Clear,0,2013-08-17 22:53:00
7:53 PM,66.9,61.0,81,30.26,10.0,Calm,Calm,-,N/A,,Clear,0,2013-08-17 23:53:00
8:53 PM,62.1,59.0,90,30.27,10.0,Calm,Calm,-,N/A,,Clear,0,2013-08-18 00:53:00
9:53 PM,57.9,55.9,93,30.27,10.0,Calm,Calm,-,N/A,,Clear,0,2013-08-18 01:53:00
10:53 PM,57.0,53.1,87,30.28,10.0,Calm,Calm,-,N/A,,Clear,0,2013-08-18 02:53:00
11:53 PM,55.9,53.1,90,30.28,10.0,Calm,Calm,-,N/A,,Clear,0,2013-08-18 03:53:00